GEFSSGP_con_prob3kmehi_174.txt.gz
EHI
3 3 4 4 3 1 0 0 0 0 0 0 0 0 0 0 0 0 0 0 0 1 2 1 1 2 2 3 4 5 3 1 0 0 0 0 0 0 0 0 0 0 0 0 0 0 0 0 0
3 3 4 4 2 0 0 0 0 0 0 0 0 0 0 0 0 0 0 0 0 1 2 2 2 2 3 5 5 5 3 1 0 0 0 0 0 0 0 0 0 0 0 0 0 0 0 0 0
3 4 4 2 0 0 0 0 0 0 0 0 0 0 0 0 0 0 0 0 0 0 2 4 4 3 3 4 4 3 1 0 0 0 0 0 0 0 0 0 0 0 0 0 0 0 0 0 0
4 5 4 1 0 0 0 0 0 0 0 0 0 0 0 0 0 0 0 0 0 0 2 4 4 2 1 1 2 1 0 0 0 0 0 0 0 0 0 0 0 0 0 0 0 0 0 0 0
4 5 3 1 0 0 0 0 0 0 0 0 0 0 0 0 0 0 0 0 0 0 2 4 4 1 0 0 0 0 0 0 0 0 0 0 0 0 0 0 0 0 0 0 0 0 0 0 0
5 3 1 0 0 0 0 0 0 0 0 0 0 0 1 2 1 0 0 0 0 1 3 5 4 2 1 0 0 0 0 0 1 1 1 0 0 0 0 0 0 0 0 0 0 0 0 0 1
3 2 0 0 0 0 0 0 0 0 0 0 0 0 3 4 3 0 0 0 0 1 2 4 4 3 1 0 0 0 0 0 1 1 1 0 0 0 0 0 0 0 0 0 0 0 0 0 1
1 0 0 0 0 0 0 0 0 0 0 0 0 1 9 14 10 3 1 0 0 0 2 3 3 2 1 0 0 0 0 0 0 0 0 0 0 0 0 0 0 0 0 0 0 0 0 0 1
0 0 0 0 0 0 0 0 0 0 1 0 1 6 22 33 24 11 6 3 1 1 2 3 3 3 1 0 0 0 0 0 0 0 0 0 0 0 0 0 0 0 0 0 0 0 0 0 0
0 0 0 0 0 0 0 1 1 0 0 1 6 19 39 46 34 19 11 7 5 4 4 4 3 3 3 1 0 0 0 0 0 0 0 0 0 0 0 0 0 0 0 0 0 0 0 1 1
0 0 0 0 0 0 0 1 2 1 1 3 16 37 51 47 34 21 14 11 9 7 6 5 4 4 4 2 1 1 1 1 1 0 0 0 0 0 0 0 0 0 0 0 0 0 0 0 0
0 0 0 0 0 0 0 1 2 3 2 6 24 48 54 43 31 20 15 13 11 10 10 8 7 7 7 4 2 1 1 1 1 0 0 0 0 0 0 0 0 0 0 0 0 0 0 0 0
0 0 0 0 0 0 0 1 2 3 3 11 31 49 49 38 27 20 15 14 14 14 13 13 12 12 11 8 5 2 1 1 1 0 0 0 0 0 0 0 0 0 0 0 0 0 0 0 0
0 0 0 0 0 0 0 0 1 3 6 16 32 44 42 33 26 21 18 15 15 15 16 17 17 17 17 13 8 5 2 2 1 1 0 0 0 0 0 0 0 0 0 0 0 0 0 0 0
0 0 0 0 0 0 0 0 1 4 9 16 25 35 38 34 28 24 21 17 14 14 15 16 17 19 19 15 10 6 4 2 1 2 1 1 0 0 0 0 0 0 0 0 0 0 0 0 0
0 0 0 0 0 0 0 0 1 4 9 12 16 25 34 37 32 25 21 18 15 14 15 14 13 16 18 15 9 6 4 3 2 3 3 2 1 1 0 0 0 1 1 0 0 0 0 0 0
0 0 0 0 0 0 0 0 1 4 7 9 11 17 30 39 35 26 20 18 17 17 17 15 14 15 15 13 9 6 4 3 3 3 3 3 3 2 2 1 2 2 2 1 1 0 0 0 0
0 0 0 0 0 0 0 0 1 3 5 8 10 16 29 40 38 29 23 21 22 24 25 23 21 19 18 15 13 12 9 7 6 5 4 4 5 5 5 4 4 4 3 3 2 1 0 0 0
0 0 0 0 0 0 0 0 0 1 3 6 12 19 28 37 38 34 30 29 30 33 36 35 32 29 28 26 24 21 18 15 12 9 7 7 7 7 6 6 6 5 4 3 3 2 1 1 1
0 0 0 0 0 0 0 0 0 1 2 5 11 17 22 28 36 41 42 41 40 41 43 42 40 41 41 36 31 29 27 24 19 16 14 12 10 8 7 7 6 4 3 3 3 3 3 3 3
0 0 0 0 0 0 0 0 0 1 1 2 6 10 15 22 34 47 53 52 49 46 44 41 42 45 46 40 32 31 32 28 25 23 20 16 13 10 8 7 7 5 4 4 3 2 4 5 4
0 0 0 0 0 0 0 0 0 0 0 1 4 8 12 20 32 45 54 55 51 47 44 44 44 47 47 42 37 34 31 28 27 26 22 17 13 10 8 8 9 8 6 5 4 3 6 8 7
0 0 0 0 0 0 0 0 0 0 0 2 6 9 13 21 31 42 50 51 46 42 43 47 50 51 51 48 45 39 32 27 26 26 22 18 13 10 8 9 10 11 11 10 7 8 10 13 14
0 0 0 0 0 0 0 0 0 0 1 3 7 11 15 23 33 42 48 50 45 40 42 49 55 55 53 51 49 44 36 29 26 25 23 20 16 13 11 10 11 12 13 11 10 11 13 15 17
0 0 0 0 0 0 0 0 0 1 2 5 7 11 17 25 36 43 48 51 50 47 47 52 59 59 53 48 46 44 38 31 27 25 23 21 17 14 12 9 9 8 7 7 8 10 11 12 15
0 0 0 0 0 0 0 0 1 2 5 6 8 12 17 25 37 45 47 50 53 51 51 54 58 58 51 45 43 41 38 32 27 24 21 16 13 11 8 7 6 5 3 3 5 7 8 9 10
0 0 0 0 0 0 0 0 1 2 5 7 9 13 17 24 34 41 43 45 47 47 49 51 54 52 46 42 40 40 37 33 29 25 17 10 8 7 5 4 5 5 4 4 5 7 7 6 7
0 0 0 0 0 0 0 0 0 2 4 7 9 14 19 23 29 34 37 38 38 40 43 46 48 48 43 38 38 38 37 34 31 24 16 10 7 6 5 4 5 5 4 3 5 6 5 4 5
0 0 0 0 0 0 0 0 0 1 5 6 8 14 20 23 27 30 33 34 33 36 40 42 44 45 42 38 38 38 36 33 30 23 17 12 8 6 6 5 5 4 3 2 3 2 2 3 4
0 0 0 0 0 0 0 0 0 1 4 5 8 15 20 24 28 30 32 34 35 37 41 42 41 40 39 38 39 40 36 32 27 22 17 13 8 6 7 7 5 3 2 2 2 1 1 2 3

GEFSSGP_con_prob3kmehi_180.txt.gz
EHI
5 15 30 39 30 12 2 0 0 0 0 0 0 1 2 2 2 1 2 6 8 5 2 1 1 0 0 0 0 0 0 0 0 0 0 0 0 0 0 0 0 0 0 0 0 0 0 0 0
8 16 25 28 20 7 1 0 0 0 0 0 0 1 2 2 2 2 2 5 6 4 2 2 1 0 0 0 0 0 0 0 0 0 0 0 0 0 0 0 0 0 0 0 0 0 0 0 0
13 16 18 16 9 2 0 0 0 0 0 0 0 1 1 1 1 2 2 3 4 5 5 4 2 0 0 0 0 0 0 0 0 0 0 0 0 0 0 0 0 0 0 0 0 0 0 0 0
17 15 12 8 3 0 0 0 0 0 0 0 0 0 0 0 1 2 2 2 4 6 7 6 4 2 0 0 0 0 0 0 0 0 0 0 0 0 0 0 0 0 0 0 0 0 0 0 0
14 11 7 2 0 0 0 0 0 0 0 0 0 0 0 0 0 1 1 2 5 10 10 8 7 4 1 0 0 0 0 0 0 0 0 0 0 0 0 0 0 0 0 0 0 0 0 0 0
9 7 3 0 0 0 0 0 0 0 1 1 1 1 0 0 0 0 0 1 7 14 13 8 7 4 1 0 0 0 0 0 0 0 0 0 0 0 0 0 0 0 0 0 0 0 0 0 0
6 4 1 0 0 0 0 0 0 1 1 1 1 2 2 2 1 0 0 2 8 14 11 7 6 4 1 0 0 0 0 0 0 0 0 0 0 0 0 0 0 0 0 0 0 0 0 0 0
3 1 0 0 0 0 0 0 1 1 0 1 3 6 7 5 2 1 1 3 7 9 8 7 8 7 5 3 1 1 1 1 0 1 2 1 0 0 0 0 0 0 0 0 0 0 0 0 1
1 0 0 0 0 0 0 1 1 1 0 2 6 12 14 9 5 4 5 7 9 9 7 7 9 10 9 7 6 5 3 2 1 2 4 4 2 2 2 3 2 1 0 1 1 2 1 1 2
0 0 0 0 0 0 0 1 1 1 3 8 15 19 18 14 11 10 12 14 14 12 9 8 10 11 9 10 12 10 8 7 4 4 7 7 5 5 7 7 4 1 0 2 5 6 5 4 4
0 0 0 0 0 0 1 1 2 3 9 18 25 26 23 20 18 17 17 19 18 14 11 11 13 12 9 11 12 12 13 12 9 8 9 6 4 6 10 10 5 2 0 2 6 7 6 5 5
0 0 0 0 0 0 1 1 2 5 13 23 29 30 28 24 22 20 20 22 20 15 13 18 23 21 17 13 11 11 14 12 12 15 13 7 4 5 10 11 7 3 1 2 4 4 3 3 3
0 0 0 0 0 0 1 1 2 7 16 23 28 31 31 28 25 24 25 27 25 19 18 26 33 32 25 18 14 13 13 10 14 20 19 12 7 6 9 11 9 4 2 4 4 2 1 1 1
0 0 0 0 0 0 0 0 3 10 18 22 26 31 33 31 31 31 32 35 31 25 24 31 38 37 30 22 18 15 12 13 18 26 28 21 14 12 12 11 9 5 4 6 7 4 2 2 1
0 0 0 0 0 1 1 1 3 11 17 21 25 31 36 38 38 38 40 41 38 34 34 35 37 39 35 26 19 13 12 17 25 33 37 30 20 16 14 12 9 6 6 10 10 6 3 2 1
0 0 0 0 0 1 1 1 4 9 14 18 23 31 41 48 48 47 46 46 48 50 49 42 39 46 45 33 22 15 17 26 32 35 39 35 23 17 16 13 11 9 9 12 12 8 5 3 1
0 0 0 0 0 0 1 2 5 8 11 16 22 33 48 57 59 58 54 54 60 66 65 53 48 55 54 42 32 25 27 36 38 36 38 37 29 21 16 15 14 13 14 14 12 12 11 6 3
0 0 0 0 0 0 1 2 5 7 10 14 22 36 53 63 66 67 65 65 71 77 77 66 59 61 60 53 46 40 38 42 43 41 42 43 37 28 19 16 16 16 15 15 14 16 16 11 7
0 0 0 0 0 0 1 2 4 5 8 15 25 39 56 67 71 74 75 75 80 84 84 77 70 69 67 62 55 50 47 47 46 47 50 51 42 32 24 18 18 19 16 15 16 17 15 12 10
0 0 0 0 0 0 1 3 4 4 8 15 25 40 57 69 77 80 81 82 84 86 86 82 80 78 73 66 59 54 52 51 50 53 58 56 45 35 27 22 20 20 19 18 19 19 14 10 9
0 0 0 0 0 0 1 3 5 7 9 12 19 34 51 66 78 83 83 82 83 84 84 84 85 84 79 70 62 56 55 55 54 56 57 54 46 36 29 25 23 22 23 23 23 22 18 12 8
0 0 0 0 0 0 0 2 7 10 10 9 13 26 41 56 72 80 82 82 81 81 83 85 86 86 82 74 67 61 58 57 56 55 53 49 43 35 31 29 27 26 25 24 23 22 22 17 12
0 0 0 0 0 0 0 1 5 10 10 7 9 20 35 49 64 76 80 81 81 82 84 85 85 83 80 76 71 66 60 55 53 52 50 47 41 35 31 30 31 30 26 22 21 23 25 21 16
0 0 0 0 0 0 0 0 3 7 8 7 8 17 31 44 59 72 79 82 84 84 84 85 84 81 78 77 75 70 61 54 52 51 50 46 41 36 32 31 35 33 26 21 21 24 24 20 17
0 0 0 0 0 0 0 1 3 6 8 9 10 16 28 41 54 68 78 83 86 85 83 85 85 82 78 75 73 69 61 55 53 51 48 42 36 34 33 35 39 37 27 20 20 20 18 16 15
0 0 0 0 0 0 1 3 6 8 9 10 12 18 28 40 51 64 76 82 84 83 82 83 82 79 75 72 69 65 60 55 51 48 44 38 34 32 33 36 39 37 28 19 16 16 14 12 12
0 0 0 0 0 0 2 4 7 9 9 9 12 18 28 39 50 61 72 77 79 79 77 77 75 73 71 70 67 61 57 52 47 44 41 37 34 31 30 33 36 35 28 19 14 14 14 12 11
0 0 0 0 0 0 1 2 6 8 10 10 12 19 29 40 50 59 67 74 75 73 71 69 68 68 68 68 66 60 55 51 46 43 41 37 34 30 28 30 32 31 26 20 15 14 14 12 11
0 0 0 0 0 0 0 1 4 8 13 14 16 23 34 43 51 58 65 70 71 67 64 63 62 63 64 65 63 60 55 51 48 43 39 35 34 31 30 31 30 25 20 16 14 12 10 8 7
0 0 0 0 0 0 1 1 3 8 14 17 19 27 37 44 51 58 64 67 67 62 58 58 58 59 61 62 61 59 56 53 49 43 36 33 33 32 32 32 29 22 15 12 11 10 6 4 4

GEFSSGP_con_prob3kmehi_186.txt.gz
EHI
3 2 1 2 2 1 0 0 0 0 0 0 0 0 0 0 0 0 0 2 6 6 4 5 7 5 4 3 3 3 3 3 3 3 3 3 3 3 3 3 3 3 3 3 2 2 2 3 3
1 1 1 1 1 0 0 0 0 0 0 0 0 0 0 0 0 0 0 2 6 6 4 5 7 7 4 3 3 3 3 3 3 3 3 3 3 3 3 3 3 3 3 3 2 2 2 3 3
0 0 0 0 0 0 0 0 1 1 0 0 0 0 0 0 0 0 0 2 4 4 4 6 8 7 5 4 3 3 3 3 3 3 3 3 3 3 3 3 3 3 3 3 3 2 3 3 3
1 0 0 0 0 0 0 1 3 3 2 1 0 0 0 0 1 1 1 3 4 4 4 7 9 9 7 6 5 4 3 3 3 3 3 3 3 3 3 3 3 3 3 3 3 3 3 3 4
1 0 0 0 0 0 1 2 5 6 4 2 1 0 0 2 4 5 4 4 5 4 4 8 11 11 9 7 7 5 4 3 3 3 3 3 3 3 3 3 3 3 3 3 3 3 3 4 4
1 0 0 0 0 0 1 3 8 9 7 3 1 0 1 4 9 10 7 5 4 4 5 7 10 11 9 8 8 6 4 4 3 3 3 3 3 3 3 3 3 3 3 3 3 3 3 3 3
0 0 0 0 0 0 1 3 7 10 7 3 0 0 1 6 12 14 11 7 5 4 5 7 7 6 6 6 6 5 4 3 3 3 3 3 3 3 3 3 3 3 3 3 3 2 1 1 2
0 0 0 0 0 0 0 1 4 7 6 3 1 2 4 8 16 19 15 10 6 4 5 6 5 3 3 4 4 3 3 3 3 3 3 3 3 3 3 3 3 3 4 4 3 2 1 2 3
1 0 0 0 0 0 0 0 1 2 3 3 4 6 10 16 23 25 22 15 8 5 4 4 4 3 3 3 3 3 3 3 3 3 3 3 3 3 3 3 3 4 5 5 4 4 3 4 4
2 1 0 0 0 0 0 0 0 1 3 6 9 12 17 23 29 32 28 21 13 7 4 4 3 3 3 3 3 3 3 3 3 3 3 3 3 3 3 3 3 3 4 5 5 6 5 4 3
3 2 1 0 0 0 0 0 1 2 4 8 13 17 20 24 28 31 30 25 19 11 6 5 4 3 3 3 4 4 3 3 3 3 3 3 3 3 3 3 3 3 3 4 4 4 3 2 1
2 2 2 2 2 1 1 1 2 3 5 9 15 20 21 21 23 25 27 27 22 15 8 6 6 5 4 5 5 5 4 3 3 3 3 4 4 3 3 3 3 3 3 3 3 3 1 1 0
1 1 2 2 2 3 4 4 4 5 7 10 15 19 19 18 18 21 25 26 24 20 16 14 14 12 10 8 7 7 6 5 4 4 4 5 5 4 4 4 4 3 3 2 3 2 1 0 0
0 0 1 1 1 4 7 7 7 11 13 13 14 16 16 16 17 21 26 27 28 31 32 28 25 23 19 14 11 9 8 7 7 8 8 7 6 5 5 6 5 4 3 3 3 2 1 0 0
0 0 0 0 0 3 8 8 11 19 21 17 14 14 14 15 19 24 30 32 35 44 48 43 35 32 27 22 17 12 9 8 9 11 12 9 8 7 7 6 5 4 4 3 2 2 2 1 0
0 0 0 0 0 2 7 9 14 24 27 21 17 16 15 16 21 28 34 36 41 51 57 52 44 39 35 30 22 14 9 8 10 12 12 10 9 11 10 6 3 3 3 2 1 2 2 1 0
0 0 0 0 0 1 4 8 16 25 28 24 20 19 19 21 26 34 39 40 44 54 59 56 51 46 40 34 23 12 7 8 10 11 12 11 11 13 11 7 4 3 3 1 0 1 1 0 0
0 0 0 0 0 1 3 8 17 25 28 26 23 23 26 30 35 41 45 45 48 54 59 60 57 50 42 34 24 12 6 6 8 11 13 15 15 14 11 9 6 4 3 2 1 0 0 0 0
0 0 0 0 0 1 4 9 17 25 28 28 27 30 36 39 42 48 53 55 56 59 62 64 60 53 45 37 27 17 9 6 7 10 14 17 17 16 12 9 6 5 3 2 1 0 0 0 0
0 0 0 0 0 2 6 10 15 21 26 29 32 37 44 48 50 55 62 67 69 68 69 69 66 60 51 43 34 24 15 8 7 10 14 16 17 17 13 7 4 3 2 1 0 1 1 0 0
0 0 0 0 0 2 5 7 10 15 20 27 35 43 50 52 55 60 67 74 76 75 73 71 70 66 57 48 41 33 23 14 11 11 13 15 17 18 13 6 3 3 2 2 1 2 2 1 0
0 0 0 0 0 1 2 3 5 10 17 26 37 46 52 54 56 61 67 73 77 76 72 69 67 64 58 51 46 41 32 21 14 13 13 15 17 18 14 9 6 5 5 4 3 3 3 1 0
0 0 0 0 0 0 0 1 3 8 15 25 34 42 50 56 59 62 66 70 74 74 70 65 61 57 55 52 48 43 34 24 16 13 13 13 13 14 15 12 9 6 6 5 3 2 2 1 1
0 0 0 0 0 0 0 0 2 6 13 22 30 37 47 57 60 61 64 68 72 72 68 62 57 53 51 50 46 40 33 26 19 15 13 11 10 11 12 11 8 5 3 3 1 1 1 1 0
0 0 0 0 0 0 0 0 1 4 11 20 30 37 47 57 60 60 62 66 70 72 67 60 53 50 50 48 44 38 34 30 23 16 13 11 10 10 10 10 8 5 2 1 0 0 0 0 0
0 0 0 0 0 0 0 0 2 5 11 20 30 40 49 56 58 59 60 63 67 69 64 57 51 48 49 47 42 37 34 30 24 17 13 12 12 11 10 9 8 6 3 1 0 0 0 0 0
0 0 0 0 0 0 0 1 4 9 15 22 30 39 47 52 55 57 57 58 60 62 58 53 49 48 48 45 39 36 33 30 26 21 16 13 11 9 9 8 7 7 4 2 1 1 0 0 0
0 0 0 0 0 0 0 1 4 12 19 24 27 34 42 48 50 51 52 51 52 53 51 48 47 46 45 42 38 35 33 31 30 26 20 13 9 8 8 7 6 6 5 4 3 1 1 1 1
0 0 0 0 0 0 0 0 3 11 19 23 25 30 38 44 45 46 47 46 46 47 46 45 46 45 42 39 37 35 33 33 32 27 20 13 10 8 7 6 6 6 5 4 3 2 2 2 2
0 0 0 0 0 0 0 0 2 9 17 22 24 29 36 42 42 44 46 45 45 44 43 44 45 44 41 39 36 34 34 34 31 25 19 14 10 8 7 6 5 5 4 3 2 2 1 1 1

GEFSSGP_con_prob3kmehi_192.txt.gz
EHI
3 1 0 0 0 0 0 0 0 0 0 0 0 0 0 0 0 0 0 0 1 2 1 1 2 3 3 1 0 0 0 0 0 0 0 0 0 0 0 0 0 0 0 0 0 0 0 0 0
1 0 0 0 0 0 0 0 0 0 0 0 0 0 0 0 0 0 0 1 2 2 1 1 2 3 3 2 1 0 0 0 0 0 0 0 0 0 0 0 0 0 0 0 0 0 0 0 0
0 0 0 0 0 0 0 0 0 0 0 0 0 0 0 0 0 0 0 1 3 2 1 1 2 3 3 2 1 0 0 0 0 0 0 0 0 0 0 0 0 0 0 0 0 0 0 0 0
0 0 0 0 0 0 0 1 1 1 1 1 0 0 0 0 0 0 1 2 3 2 1 1 3 4 3 2 1 0 0 0 0 0 0 0 0 0 0 0 0 0 0 0 0 0 0 0 0
0 0 0 0 0 0 0 1 2 2 2 2 2 1 1 0 0 0 1 2 2 1 0 2 5 5 4 2 1 0 0 0 0 0 0 0 0 0 0 0 0 0 0 0 1 1 1 0 0
0 0 0 0 0 0 1 2 3 2 3 3 3 2 1 0 0 0 0 1 1 0 0 2 6 7 5 2 0 0 0 0 0 0 0 0 1 0 0 0 0 0 0 0 1 2 1 0 0
0 0 0 0 0 0 1 2 2 3 3 3 3 1 1 0 0 0 0 0 0 0 0 1 4 6 5 2 0 0 0 0 0 0 0 0 0 0 0 0 0 0 0 0 1 2 1 0 0
0 0 0 0 0 0 0 1 1 2 3 3 2 1 1 1 1 0 0 0 0 0 0 1 3 3 2 1 0 0 0 0 0 0 0 0 0 0 0 0 0 0 0 0 0 1 1 0 0
0 0 0 0 0 0 0 0 0 1 3 3 3 2 4 5 5 3 1 0 0 0 0 1 2 2 1 0 0 0 0 0 0 0 0 0 0 0 0 0 0 0 0 0 0 0 0 0 0
0 0 0 0 0 0 0 0 0 1 2 4 5 7 11 13 10 6 3 1 0 0 0 1 2 2 1 0 0 0 0 0 0 0 0 0 0 0 0 0 0 0 0 0 0 0 0 0 0
0 0 0 0 0 0 0 0 0 1 2 5 9 16 21 18 12 7 3 1 0 0 0 0 1 1 0 0 0 0 0 0 0 0 0 0 0 0 0 0 0 0 0 0 0 0 0 0 0
0 0 0 0 0 0 0 0 0 1 2 6 14 22 25 19 13 8 4 1 0 0 0 0 0 0 0 0 0 0 0 0 0 0 0 0 0 0 0 0 0 0 0 0 0 0 0 0 0
0 0 0 0 0 0 0 0 0 1 3 7 15 22 23 19 15 11 7 3 1 0 0 0 0 0 0 0 0 0 0 0 0 0 1 1 0 0 0 0 0 0 0 0 0 0 0 0 0
0 0 0 0 0 0 0 0 0 1 4 8 14 17 17 16 15 14 11 7 4 2 0 0 0 0 0 0 0 0 0 0 1 1 2 2 1 1 1 1 1 1 1 0 0 0 0 0 0
0 0 0 0 0 0 1 0 0 2 5 9 11 12 12 12 13 15 14 12 8 4 2 0 0 0 0 0 0 0 0 0 1 1 1 2 2 2 2 2 2 2 1 0 0 0 0 0 0
0 0 0 0 0 0 0 0 0 3 6 8 8 8 8 9 11 13 13 13 10 7 4 2 1 1 1 1 0 0 0 1 1 1 0 1 1 2 3 3 2 1 1 0 0 0 0 0 0
0 0 0 0 0 0 0 0 1 3 5 7 8 8 8 9 9 10 11 12 11 9 8 6 4 3 2 1 0 0 0 1 0 0 1 1 2 3 4 3 1 0 0 0 0 0 0 0 0
0 0 0 0 0 0 1 1 2 3 4 6 7 7 8 9 9 9 10 11 10 10 11 10 7 6 5 3 1 0 0 0 0 1 2 3 5 6 5 3 1 1 0 0 0 0 0 0 0
0 0 0 0 0 1 2 3 4 4 4 5 6 7 8 10 10 10 10 11 10 12 14 15 13 12 12 10 6 3 1 1 1 2 4 5 7 8 6 3 2 2 1 0 0 0 0 0 0
0 0 0 0 0 1 2 2 3 4 3 5 8 9 10 11 10 10 11 13 14 16 19 20 19 19 21 21 15 9 5 4 3 3 3 5 7 7 4 2 2 2 1 0 0 0 0 0 0
0 0 0 0 0 0 1 1 1 1 3 6 11 13 13 12 9 9 11 14 19 23 25 25 24 25 28 28 23 17 11 9 6 4 2 3 4 4 3 1 2 2 1 0 0 0 1 1 1
0 0 0 0 0 0 0 0 0 0 2 8 11 12 13 12 9 8 11 15 21 25 27 29 28 28 30 30 27 24 19 14 10 5 3 2 2 2 2 2 3 2 1 1 1 1 1 2 2
0 0 0 0 0 0 0 0 0 0 2 7 9 8 10 13 11 9 12 17 23 26 28 30 29 28 29 29 28 28 24 17 11 7 4 3 2 3 3 3 3 3 2 1 2 1 1 1 1
0 0 0 0 0 0 0 0 0 0 2 5 6 7 9 13 15 14 16 22 27 28 30 31 30 30 29 29 29 28 24 18 12 8 6 6 5 5 4 3 3 2 2 1 1 1 0 0 0
0 0 0 0 0 0 0 0 0 0 1 4 6 8 11 15 19 21 24 28 31 31 32 33 32 31 31 31 29 25 21 17 13 10 9 9 9 7 5 4 3 1 1 0 0 0 0 0 0
0 0 0 0 0 0 0 0 0 0 3 6 8 10 15 19 21 25 27 28 29 30 31 31 31 29 28 28 26 21 18 15 13 11 10 9 9 8 4 3 2 1 0 0 0 0 0 0 0
0 0 0 0 0 0 0 0 0 2 5 9 11 13 17 21 23 25 28 27 26 26 26 25 25 23 22 22 21 20 17 15 13 10 8 8 7 5 2 1 1 0 0 0 0 0 0 0 0
0 0 0 0 0 0 0 0 0 3 8 11 12 15 19 22 23 26 29 27 24 23 22 19 19 17 17 17 18 19 18 16 13 9 6 5 4 2 1 1 1 1 1 1 0 0 0 0 0
0 0 0 0 0 0 0 0 0 3 8 11 13 15 18 21 23 25 27 25 22 21 19 17 16 16 16 17 17 17 17 16 12 7 3 2 1 0 0 0 1 1 2 2 1 0 0 0 1
0 0 0 0 0 0 0 0 0 2 7 12 14 14 16 19 21 23 25 23 20 19 17 15 16 16 17 18 17 15 14 14 11 5 2 1 0 0 0 0 0 1 3 2 1 0 0 1 1